timestamp,wind_dir_avg,wind_spd_avg,wind_spd_max_dir,wind_spd_gust,battery_voltage,lat,long
2021-01-06 00:04:01+00:00,37.0,15.43,38.0,17.07,12.57,47.59359,-54.27349
2021-01-06 00:14:01+00:00,38.0,14.12,38.0,15.9,12.57,47.59359,-54.27349
2021-01-06 00:24:01+00:00,39.0,13.63,47.0,16.0,12.57,47.59359,-54.27349
2021-01-06 00:34:01+00:00,38.0,15.95,38.0,18.35,12.57,47.59359,-54.27349
2021-01-06 00:44:01+00:00,36.0,14.28,34.0,15.76,12.57,47.59359,-54.27349
2021-01-06 00:54:01+00:00,36.0,15.51,35.0,17.2,12.57,47.59359,-54.27349
2021-01-06 01:04:01+00:00,39.0,14.9,37.0,17.01,12.57,47.59359,-54.27349
2021-01-06 01:14:01+00:00,39.0,14.02,46.0,15.59,12.57,47.59359,-54.27349
2021-01-06 01:24:01+00:00,39.0,13.98,45.0,16.24,12.57,47.59359,-54.27349
2021-01-06 01:34:01+00:00,36.0,13.56,37.0,15.47,12.57,47.59359,-54.27349
2021-01-06 01:44:01+00:00,38.0,13.53,37.0,16.38,12.57,47.59359,-54.27349
2021-01-06 01:54:01+00:00,37.0,12.8,38.0,14.94,12.57,47.59359,-54.27349
2021-01-06 02:04:01+00:00,36.0,15.83,38.0,17.42,12.57,47.59359,-54.27349
2021-01-06 02:14:01+00:00,36.0,13.49,37.0,16.01,12.49,47.59359,-54.27349
2021-01-06 02:24:01+00:00,34.0,14.62,33.0,16.22,12.49,47.59359,-54.27349
2021-01-06 02:34:01+00:00,34.0,13.59,35.0,15.79,12.49,47.59359,-54.27349
2021-01-06 02:44:01+00:00,34.0,14.63,38.0,16.53,12.49,47.59359,-54.27349
2021-01-06 02:54:01+00:00,38.0,14.08,36.0,16.59,12.49,47.59359,-54.27349
2021-01-06 03:04:01+00:00,38.0,13.38,43.0,15.78,12.49,47.59359,-54.27349
2021-01-06 03:14:01+00:00,39.0,12.89,36.0,15.25,12.49,47.59359,-54.27349
2021-01-06 03:24:01+00:00,38.0,12.55,38.0,13.96,12.49,47.59359,-54.27349
2021-01-06 03:34:01+00:00,40.0,12.95,39.0,15.88,12.49,47.59359,-54.27349
2021-01-06 03:44:01+00:00,38.0,13.32,28.0,16.82,12.49,47.59359,-54.27349
2021-01-06 03:54:01+00:00,42.0,12.55,48.0,15.45,12.49,47.59359,-54.27349
2021-01-06 04:04:01+00:00,38.0,13.7,37.0,15.68,12.49,47.59359,-54.27349
2021-01-06 04:14:01+00:00,39.0,12.79,36.0,15.28,12.49,47.59359,-54.27349
2021-01-06 04:24:01+00:00,38.0,11.96,38.0,14.08,12.49,47.59359,-54.27349
2021-01-06 04:34:01+00:00,39.0,12.02,39.0,14.0,12.49,47.59359,-54.27349
2021-01-06 04:44:01+00:00,40.0,11.98,46.0,15.62,12.49,47.59359,-54.27349
2021-01-06 04:54:01+00:00,40.0,11.79,37.0,13.82,12.49,47.59359,-54.27349
2021-01-06 05:04:01+00:00,38.0,11.83,42.0,13.32,12.49,47.59359,-54.27349
2021-01-06 05:14:01+00:00,40.0,10.89,44.0,12.48,12.41,47.59359,-54.27349
2021-01-06 05:24:01+00:00,39.0,11.36,42.0,13.38,12.41,47.59359,-54.27349
2021-01-06 05:34:01+00:00,39.0,11.94,38.0,13.09,12.41,47.59359,-54.27349
2021-01-06 05:44:01+00:00,42.0,9.94,46.0,11.46,12.41,47.59359,-54.27349
2021-01-06 05:54:01+00:00,37.0,10.57,36.0,12.41,12.41,47.59359,-54.27349
2021-01-06 06:04:01+00:00,38.0,10.34,37.0,11.67,12.41,47.59359,-54.27349
2021-01-06 06:14:01+00:00,41.0,10.14,35.0,11.36,12.41,47.59359,-54.27349
2021-01-06 06:24:01+00:00,42.0,10.36,44.0,11.78,12.41,47.59359,-54.27349
2021-01-06 06:34:01+00:00,43.0,10.25,37.0,13.04,12.41,47.59359,-54.27349
2021-01-06 06:44:01+00:00,38.0,8.37,36.0,9.35,12.41,47.59359,-54.27349
2021-01-06 06:54:01+00:00,39.0,10.22,40.0,11.39,12.41,47.59359,-54.27349
2021-01-06 07:04:01+00:00,42.0,11.21,40.0,12.4,12.41,47.59359,-54.27349
2021-01-06 07:14:01+00:00,42.0,10.32,40.0,11.39,12.41,47.59359,-54.27349
2021-01-06 07:24:01+00:00,41.0,10.75,40.0,12.3,12.41,47.59359,-54.27349
2021-01-06 07:34:01+00:00,42.0,9.71,40.0,11.33,12.41,47.59359,-54.27349
2021-01-06 07:44:01+00:00,45.0,9.92,40.0,10.9,12.41,47.59359,-54.27349
2021-01-06 07:54:01+00:00,44.0,9.48,45.0,10.64,12.41,47.59359,-54.27349
2021-01-06 08:04:01+00:00,45.0,9.38,44.0,10.72,12.41,47.59359,-54.27349
2021-01-06 08:14:01+00:00,47.0,8.76,49.0,10.12,12.41,47.59359,-54.27349
2021-01-06 08:24:01+00:00,47.0,8.7,50.0,10.38,12.41,47.59359,-54.27349
2021-01-06 08:34:01+00:00,44.0,10.51,43.0,12.4,12.41,47.59359,-54.27349
2021-01-06 08:44:01+00:00,39.0,10.91,41.0,11.98,12.41,47.59359,-54.27349
2021-01-06 08:54:01+00:00,36.0,10.75,37.0,12.19,12.41,47.59359,-54.27349
2021-01-06 09:04:01+00:00,39.0,9.67,43.0,10.74,12.41,47.59359,-54.27349
2021-01-06 09:14:01+00:00,35.0,9.93,32.0,11.2,12.41,47.59359,-54.27349
2021-01-06 09:24:01+00:00,33.0,9.74,36.0,10.7,12.41,47.59359,-54.27349
2021-01-06 09:34:01+00:00,37.0,9.26,40.0,9.99,12.41,47.59359,-54.27349
2021-01-06 09:44:01+00:00,37.0,7.36,41.0,8.26,12.41,47.59359,-54.27349
2021-01-06 09:54:01+00:00,33.0,8.94,37.0,9.85,12.41,47.59359,-54.27349
2021-01-06 10:04:01+00:00,35.0,7.62,33.0,8.95,12.41,47.59359,-54.27349
2021-01-06 10:14:01+00:00,40.0,8.0,39.0,9.21,12.33,47.59359,-54.27349
2021-01-06 10:24:01+00:00,38.0,8.89,42.0,9.94,12.33,47.59359,-54.27349
2021-01-06 10:34:01+00:00,39.0,9.97,38.0,10.67,12.33,47.59359,-54.27349
2021-01-06 10:44:01+00:00,37.0,9.03,38.0,10.13,12.33,47.59359,-54.27349
2021-01-06 10:54:01+00:00,39.0,8.81,36.0,10.05,12.33,47.59359,-54.27349
2021-01-06 11:04:01+00:00,43.0,9.08,41.0,10.28,12.33,47.59359,-54.27349
2021-01-06 11:14:01+00:00,45.0,9.5,45.0,10.89,12.33,47.59359,-54.27349
2021-01-06 11:24:01+00:00,44.0,9.04,44.0,10.01,12.33,47.59359,-54.27349
2021-01-06 11:34:01+00:00,41.0,9.56,41.0,10.52,12.33,47.59359,-54.27349
2021-01-06 11:44:01+00:00,47.0,8.4,45.0,9.51,12.33,47.59359,-54.27349
2021-01-06 11:54:01+00:00,43.0,8.82,44.0,9.75,12.33,47.59359,-54.27349
2021-01-06 12:04:01+00:00,38.0,8.24,41.0,8.99,12.33,47.59359,-54.27349
2021-01-06 12:14:01+00:00,38.0,8.09,37.0,8.97,12.33,47.59359,-54.27349
2021-01-06 12:24:01+00:00,37.0,8.03,33.0,8.93,12.33,47.59359,-54.27349
2021-01-06 12:34:01+00:00,36.0,8.19,48.0,9.78,12.33,47.59359,-54.27349
2021-01-06 12:44:01+00:00,38.0,7.54,38.0,8.54,12.33,47.59359,-54.27349
2021-01-06 12:54:01+00:00,42.0,6.43,41.0,7.58,12.33,47.59359,-54.27349
2021-01-06 13:04:01+00:00,48.0,5.12,54.0,5.97,12.33,47.59359,-54.27349
2021-01-06 13:14:01+00:00,49.0,6.17,47.0,7.26,12.57,47.59359,-54.27349
2021-01-06 13:24:01+00:00,44.0,8.21,42.0,9.12,12.57,47.59359,-54.27349
2021-01-06 13:34:01+00:00,47.0,7.42,48.0,8.31,12.57,47.59359,-54.27349
2021-01-06 13:44:01+00:00,45.0,8.32,34.0,9.39,12.57,47.59359,-54.27349
2021-01-06 13:54:01+00:00,49.0,7.55,51.0,8.51,12.57,47.59359,-54.27349
2021-01-06 14:04:01+00:00,48.0,6.46,44.0,7.23,12.57,47.59359,-54.27349
2021-01-06 14:14:01+00:00,43.0,5.56,43.0,6.15,13.29,47.59359,-54.27349
2021-01-06 14:24:01+00:00,40.0,7.13,38.0,8.1,13.29,47.59359,-54.27349
2021-01-06 14:34:01+00:00,39.0,6.89,40.0,7.75,13.29,47.59359,-54.27349
2021-01-06 14:44:01+00:00,39.0,6.88,40.0,8.05,13.29,47.59359,-54.27349
2021-01-06 14:54:01+00:00,44.0,6.56,50.0,7.23,13.29,47.59359,-54.27349
2021-01-06 15:04:01+00:00,41.0,6.02,43.0,6.74,13.29,47.59359,-54.27349
2021-01-06 15:14:01+00:00,43.0,6.37,43.0,7.06,13.68,47.59359,-54.27349
2021-01-06 15:24:01+00:00,43.0,7.15,42.0,7.88,13.68,47.59359,-54.27349
2021-01-06 15:34:01+00:00,36.0,5.94,36.0,6.46,13.68,47.59359,-54.27349
2021-01-06 15:44:01+00:00,42.0,5.64,45.0,6.14,13.68,47.59359,-54.27349
2021-01-06 15:54:01+00:00,42.0,4.77,38.0,5.36,13.68,47.59359,-54.27349
2021-01-06 16:04:01+00:00,44.0,4.45,41.0,5.06,13.68,47.59359,-54.27349
2021-01-06 16:14:01+00:00,45.0,4.62,42.0,5.33,13.29,47.59359,-54.27349
2021-01-06 16:24:01+00:00,42.0,4.33,40.0,4.81,13.29,47.59359,-54.27349
2021-01-06 16:34:01+00:00,56.0,4.12,55.0,4.57,13.29,47.59359,-54.27349
2021-01-06 16:44:01+00:00,54.0,3.82,55.0,4.2,13.29,47.59359,-54.27349
2021-01-06 16:54:01+00:00,54.0,3.88,57.0,4.28,13.29,47.59359,-54.27349
2021-01-06 17:04:01+00:00,48.0,3.57,48.0,3.88,13.29,47.59359,-54.27349
2021-01-06 17:14:01+00:00,46.0,4.23,45.0,4.77,13.21,47.59359,-54.27349
2021-01-06 17:24:01+00:00,39.0,4.18,41.0,4.74,13.21,47.59359,-54.27349
2021-01-06 17:34:01+00:00,35.0,4.74,36.0,5.19,13.21,47.59359,-54.27349
2021-01-06 17:44:01+00:00,38.0,5.26,41.0,5.84,13.21,47.59359,-54.27349
2021-01-06 17:54:01+00:00,38.0,4.8,46.0,5.61,13.21,47.59359,-54.27349
2021-01-06 18:04:01+00:00,41.0,4.73,45.0,5.36,13.21,47.59359,-54.27349
2021-01-06 18:14:01+00:00,50.0,3.8,50.0,4.27,13.13,47.59359,-54.27349
2021-01-06 18:24:01+00:00,48.0,3.84,47.0,4.28,13.13,47.59359,-54.27349
2021-01-06 18:34:01+00:00,50.0,3.15,48.0,3.5,13.13,47.59359,-54.27349
2021-01-06 18:44:01+00:00,45.0,3.36,47.0,3.66,13.13,47.59359,-54.27349
2021-01-06 18:54:01+00:00,48.0,3.3,56.0,4.22,13.13,47.59359,-54.27349
2021-01-06 19:04:01+00:00,43.0,4.86,43.0,5.26,13.13,47.59359,-54.27349
2021-01-06 19:14:01+00:00,51.0,3.89,54.0,5.04,12.97,47.59359,-54.27349
2021-01-06 19:24:01+00:00,49.0,4.49,52.0,5.2,12.97,47.59359,-54.27349
2021-01-06 19:34:01+00:00,315.0,0.01,0.0,0.0,12.97,47.59359,-54.27349
2021-01-06 19:44:01+00:00,315.0,0.01,0.0,0.0,12.97,47.59359,-54.27349
2021-01-06 19:54:01+00:00,50.0,4.47,51.0,5.08,12.97,47.59359,-54.27349
2021-01-06 20:04:01+00:00,50.0,4.08,49.0,4.65,12.97,47.59359,-54.27349
2021-01-06 20:14:01+00:00,57.0,3.76,55.0,4.26,12.65,47.59359,-54.27349
2021-01-06 20:24:01+00:00,53.0,4.08,57.0,4.82,12.65,47.59359,-54.27349
2021-01-06 20:34:01+00:00,49.0,5.64,46.0,6.15,12.65,47.59359,-54.27349
2021-01-06 20:44:01+00:00,58.0,5.16,57.0,5.46,12.65,47.59359,-54.27349
2021-01-06 20:54:01+00:00,51.0,5.54,64.0,6.47,12.65,47.59359,-54.27349
2021-01-06 21:04:01+00:00,61.0,3.7,66.0,4.4,12.65,47.59359,-54.27349
2021-01-06 21:14:01+00:00,47.0,4.55,49.0,4.97,12.65,47.59359,-54.27349
2021-01-06 21:24:01+00:00,43.0,3.88,42.0,4.53,12.65,47.59359,-54.27349
2021-01-06 21:34:01+00:00,48.0,3.15,50.0,3.61,12.65,47.59359,-54.27349
2021-01-06 21:44:01+00:00,70.0,2.94,70.0,3.93,12.65,47.59359,-54.27349
2021-01-06 21:54:01+00:00,67.0,3.36,65.0,3.63,12.65,47.59359,-54.27349
2021-01-06 22:04:01+00:00,59.0,2.22,52.0,2.73,12.65,47.59359,-54.27349
2021-01-06 22:14:01+00:00,78.0,2.68,49.0,3.93,12.57,47.59359,-54.27349
2021-01-06 22:24:01+00:00,73.0,2.76,52.0,4.59,12.57,47.59359,-54.27349
2021-01-06 22:34:01+00:00,78.0,2.24,84.0,3.73,12.57,47.59359,-54.27349
2021-01-06 22:44:01+00:00,80.0,3.2,97.0,5.39,12.57,47.59359,-54.27349
2021-01-06 22:54:01+00:00,93.0,3.39,117.0,5.75,12.57,47.59359,-54.27349
2021-01-06 23:04:01+00:00,85.0,4.29,97.0,5.69,12.57,47.59359,-54.27349
2021-01-06 23:14:01+00:00,79.0,4.16,86.0,5.56,12.57,47.59359,-54.27349
2021-01-06 23:24:01+00:00,84.0,3.5,70.0,4.94,12.57,47.59359,-54.27349
2021-01-06 23:34:01+00:00,72.0,5.17,71.0,5.8,12.57,47.59359,-54.27349
2021-01-06 23:44:01+00:00,75.0,4.04,79.0,5.15,12.57,47.59359,-54.27349
2021-01-06 23:54:01+00:00,81.0,3.4,91.0,5.37,12.57,47.59359,-54.27349
